RH
97 95 90 89 94 98 100 100 98 54 40 33 45 68 81 85 86 86 93 99 97 93 83 86 95 94 80 88 89 81 86 93 98 98 99 96 96 93 96 70 68 79 100 100 100 96 92 54 57 68 23 33 42 47
99 98 97 96 96 98 100 94 98 98 100 100 85 56 56 99 100 100 92 93 96 97 85 72 86 78 91 100 98 98 91 94 97 98 99 98 96 95 97 97 88 93 83 71 74 73 61 52 47 56 57 58 59 63
91 97 97 97 96 95 90 96 94 94 98 98 99 99 98 100 100 97 98 93 96 96 93 96 62 59 63 68 85 96 96 96 86 91 97 96 98 95 96 89 66 74 90 95 94 91 89 76 76 86 85 70 67 67
94 95 95 92 84 85 95 96 98 98 95 91 93 96 98 99 100 96 94 100 100 100 99 64 63 64 57 52 66 78 78 76 82 90 96 96 98 97 96 94 92 89 89 90 98 97 97 97 95 99 99 95 94 97
79 77 78 79 73 72 82 91 96 89 86 89 92 81 66 81 96 95 94 99 100 99 96 96 91 79 86 77 77 90 92 87 84 87 96 99 95 97 96 98 95 91 97 97 97 85 95 93 93 93 95 96 94 95
85 88 84 78 82 90 97 97 93 90 85 91 91 94 78 69 66 78 79 70 68 73 92 80 61 57 62 67 77 75 81 90 100 96 84 81 79 86 100 96 82 76 72 90 94 90 94 97 94 87 85 90 89 92
90 82 89 88 84 76 76 78 82 89 87 90 92 83 78 78 74 75 72 68 72 85 87 99 80 51 47 48 47 45 57 60 63 70 75 83 98 100 97 98 100 100 98 100 97 97 95 88 81 67 70 72 76 78
68 80 86 88 84 83 86 86 85 85 89 88 82 79 76 86 90 87 93 83 86 97 99 98 95 85 58 53 50 42 53 76 73 68 74 83 76 56 100 95 96 95 96 93 89 87 82 52 54 56 58 62 74 86
84 74 65 53 53 61 60 59 60 61 62 65 73 82 95 97 97 97 93 81 82 100 99 97 98 92 75 70 77 80 88 83 80 65 54 72 83 97 94 97 97 100 97 72 58 63 69 77 77 83 80 84 95 98
56 57 58 58 76 87 79 63 57 64 64 58 59 65 70 79 91 91 91 88 87 89 99 100 82 100 95 97 94 99 100 96 90 74 69 77 93 97 96 93 90 92 60 80 70 80 97 100 94 92 87 94 100 100
47 50 57 60 61 53 46 40 57 68 67 70 79 90 98 99 100 99 100 100 100 100 100 100 100 100 99 100 99 100 99 94 99 96 100 99 97 97 90 91 94 93 92 88 86 83 92 96 96 96 99 100 100 100
49 53 66 54 55 69 74 74 62 71 76 85 90 91 97 99 100 99 99 100 100 100 100 99 98 96 94 97 100 100 100 99 99 100 100 100 100 99 98 100 100 99 96 92 89 92 96 97 99 100 100 98 100 100
78 75 70 52 47 60 56 52 61 77 78 84 93 100 100 98 98 97 97 96 92 81 80 77 84 94 98 100 100 100 100 100 100 100 100 100 100 100 100 98 94 92 94 97 100 100 100 100 99 100 100 100 99 76
64 64 63 43 51 64 58 62 80 86 88 91 94 83 85 91 71 39 33 31 28 25 33 52 28 69 100 100 100 100 100 100 100 100 100 100 100 100 100 100 100 100 100 97 88 88 87 89 78 65 44 22 19 20
42 53 54 58 57 65 71 71 72 77 80 79 72 52 47 44 45 46 46 46 39 24 21 55 72 96 100 100 100 100 100 100 100 100 98 98 98 98 100 99 100 100 70 34 32 23 19 19 20 20 20 21 23 25
12 19 19 46 64 52 41 50 76 69 31 32 36 39 43 46 50 49 49 50 36 27 48 75 100 100 100 100 100 100 100 100 100 99 99 98 99 100 99 100 100 100 94 72 66 44 22 21 22 23 24 25 28 30
12 12 12 12 11 13 18 12 17 10 33 41 46 50 55 55 56 60 60 47 30 32 48 63 67 100 100 100 100 100 100 98 96 95 98 99 93 90 96 98 98 98 97 90 76 52 28 23 24 25 27 29 32 36
21 16 15 14 15 15 15 15 14 24 37 47 54 60 63 64 68 63 66 42 37 37 49 74 94 91 65 67 66 63 60 62 63 65 69 79 91 93 95 100 99 89 67 53 43 32 26 26 26 28 29 33 42 45
22 24 25 25 23 21 24 25 20 20 20 20 28 40 45 48 53 57 71 44 44 43 44 47 48 49 51 52 48 45 49 53 49 54 67 83 86 91 97 100 100 100 99 78 50 34 30 30 30 31 46 72 60 60
16 17 19 20 23 26 30 35 38 39 35 25 20 24 31 37 45 58 70 45 46 47 59 61 62 61 58 55 53 51 50 51 50 46 53 74 97 98 100 100 100 100 100 100 100 90 66 52 70 96 98 88 78 75
12 14 14 17 18 20 23 27 33 37 43 46 42 33 29 30 41 53 67 50 49 60 69 74 74 74 74 70 66 62 61 59 58 54 52 47 64 87 99 100 100 100 100 100 100 100 100 100 100 99 100 99 96 94
11 12 13 14 15 18 19 22 27 31 37 46 52 51 47 36 40 50 67 53 54 65 74 80 81 80 81 80 79 75 72 72 72 68 64 62 66 82 99 100 100 100 100 100 100 100 100 100 100 100 100 100 99 100
11 14 14 15 15 16 18 19 23 28 33 39 49 59 63 55 42 51 66 51 58 64 75 84 88 90 88 89 90 88 82 80 82 83 77 73 72 71 80 99 100 100 100 100 100 100 100 100 100 100 100 100 100 100
12 15 14 15 16 16 17 18 20 28 32 40 43 56 67 72 59 55 63 58 59 63 70 80 86 85 88 91 90 87 78 75 78 89 88 81 80 83 81 84 99 100 100 100 100 100 100 100 100 100 100 100 100 100
12 15 14 16 17 17 18 19 20 24 32 38 43 52 65 79 88 73 62 64 65 63 69 78 87 92 92 87 89 85 81 76 75 78 88 84 81 83 93 95 99 100 100 100 100 100 100 100 100 100 100 100 100 100
17 15 17 18 18 19 19 20 21 23 27 38 45 56 74 91 100 95 76 61 63 68 74 82 86 90 95 99 89 79 79 84 87 90 96 96 94 90 85 91 100 100 100 100 100 100 100 100 100 100 100 100 100 100
22 19 24 22 26 27 26 26 24 23 29 41 51 63 90 97 100 99 81 66 64 76 89 98 100 100 100 98 89 90 94 98 100 99 100 100 100 98 95 92 96 100 100 98 100 100 100 100 100 100 100 100 100 100
43 38 40 44 49 47 40 38 31 27 31 46 60 78 97 100 100 100 90 68 70 88 100 100 100 100 91 90 99 100 100 99 100 100 98 100 100 100 100 100 100 99 100 92 98 100 100 100 100 100 100 100 100 100
66 73 58 68 79 61 48 44 40 33 31 41 58 69 92 100 100 99 83 70 80 94 93 89 88 78 80 84 90 90 90 81 72 65 61 62 69 99 100 100 100 100 100 100 93 91 100 100 100 100 100 100 100 100
94 93 75 73 80 73 56 58 53 51 36 43 56 75 92 100 89 65 71 79 86 87 94 92 78 74 73 69 60 53 55 60 66 76 79 82 82 84 99 100 100 100 100 100 93 85 94 100 95 100 100 100 100 100
86 61 67 71 72 68 63 64 58 57 42 50 73 93 100 78 64 55 76 85 93 93 87 71 69 69 66 55 49 52 58 74 91 100 100 100 100 100 100 100 100 100 100 98 92 86 95 99 100 100 100 100 100 100
86 72 74 72 70 68 67 69 62 61 52 52 93 100 100 81 60 58 74 78 83 85 79 70 69 65 54 50 57 68 82 92 100 100 98 100 100 100 100 100 100 94 99 98 90 96 100 100 100 100 100 100 100 100
77 70 74 71 71 73 71 72 64 65 52 56 98 100 98 90 65 64 76 81 87 86 73 73 71 55 45 50 60 73 84 85 82 85 98 100 100 100 100 92 96 100 100 100 100 100 100 100 100 100 100 100 100 100
Wind_Speed
18 17 17 20 24 25 25 17 15 22 28 31 32 35 37 38 39 33 30 28 33 38 41 39 33 38 37 35 34 36 31 37 35 37 36 32 27 35 34 47 47 43 29 34 38 31 27 53 47 49 59 52 43 40
19 17 15 21 24 26 26 19 19 20 17 16 18 24 28 24 27 28 31 29 28 30 35 37 42 40 31 33 26 35 43 34 27 32 34 33 22 22 27 26 42 41 51 47 45 40 38 39 38 40 39 42 42 43
19 18 16 14 16 17 18 19 20 20 20 21 22 18 19 24 22 20 23 30 33 36 38 39 42 38 40 46 42 47 39 37 42 47 40 37 39 39 36 38 48 48 40 47 50 56 53 47 42 43 44 45 44 43
11 13 16 14 14 15 17 18 20 18 18 17 17 19 22 21 21 21 24 24 26 28 32 35 34 31 33 40 45 50 54 53 54 58 59 51 42 27 31 41 49 50 44 40 39 38 37 39 44 46 48 39 38 38
7 8 10 12 14 15 16 18 18 18 19 16 16 15 14 16 18 21 20 20 23 23 17 16 22 24 29 32 35 35 39 43 48 53 54 53 54 52 55 51 43 29 34 37 38 41 42 38 41 44 32 32 34 34
5 6 7 7 9 11 11 13 13 13 15 15 13 12 13 14 16 16 16 17 20 21 24 29 34 36 35 35 30 33 30 32 36 43 46 46 54 57 46 48 53 52 52 46 43 43 30 34 42 47 51 45 39 40
7 6 4 4 6 8 9 11 11 10 10 10 10 10 10 13 13 13 14 15 14 15 18 20 25 28 25 24 24 27 27 29 33 36 43 49 39 33 46 58 53 50 48 43 35 35 39 31 29 29 30 32 33 33
10 9 7 5 3 3 4 5 7 8 10 10 10 12 13 14 14 14 13 14 14 12 14 8 11 18 26 27 28 30 29 23 21 25 31 38 46 59 43 40 33 27 35 37 34 32 35 35 34 34 35 35 34 33
11 11 9 8 5 4 3 4 5 7 8 10 13 15 14 14 15 13 13 15 16 17 18 15 15 13 14 21 23 24 26 30 27 28 29 31 31 24 30 36 36 34 28 29 32 36 38 37 36 38 37 38 37 36
11 11 10 8 6 5 4 3 3 5 6 8 10 10 12 13 12 13 14 15 16 21 25 29 30 23 25 28 31 29 22 19 18 23 26 28 30 27 16 25 26 32 40 36 36 38 37 39 40 39 36 34 32 30
12 12 11 9 6 4 5 4 4 4 5 5 6 7 7 5 7 9 7 7 7 7 10 17 21 24 22 24 27 20 13 14 13 19 19 13 19 25 31 31 33 34 34 33 36 38 36 33 30 29 26 22 20 19
13 13 14 12 10 10 6 6 5 3 5 4 3 3 3 4 5 4 2 4 4 4 10 13 19 23 22 21 15 10 14 9 9 12 8 6 11 19 22 24 24 25 25 26 27 26 25 24 21 18 16 16 15 14
14 13 13 10 11 11 8 6 5 5 5 6 4 2 0 1 4 8 12 9 15 19 22 23 20 22 14 9 9 9 7 8 6 6 6 5 11 14 16 17 18 19 20 20 17 15 13 12 13 12 12 12 12 11
18 16 12 13 13 11 9 9 7 5 3 2 3 6 7 8 10 15 18 22 24 24 22 19 17 12 15 11 9 7 7 6 4 6 3 9 12 13 12 13 13 13 12 10 9 10 11 11 13 13 14 14 15 14
27 22 17 16 15 14 11 9 6 5 3 4 6 7 11 12 12 15 18 23 29 29 21 18 16 9 9 8 5 6 4 3 2 0 19 16 14 13 12 12 14 17 15 14 14 14 15 15 16 16 15 15 14 13
33 27 23 20 18 17 13 9 6 5 11 13 12 10 8 9 12 17 22 27 34 24 16 10 5 4 4 5 5 4 4 1 10 23 23 22 20 19 17 16 16 16 18 18 18 18 17 17 17 16 16 15 15 14
34 33 30 28 24 18 15 10 14 18 9 8 9 8 10 15 18 22 27 35 31 21 16 6 4 3 7 4 4 6 9 26 27 27 25 25 25 23 21 21 21 20 21 21 21 22 21 20 19 18 18 17 16 16
37 33 31 26 24 24 26 30 33 24 21 16 11 15 18 20 20 21 26 36 27 19 12 8 6 5 9 11 16 25 24 24 25 27 26 25 26 25 25 24 23 23 23 24 24 23 22 22 21 21 20 18 17 17
34 33 32 30 28 29 38 38 34 27 24 24 22 20 20 22 21 21 22 34 26 19 17 10 7 14 19 21 24 24 24 26 27 24 23 23 25 26 24 25 25 25 25 24 24 23 23 22 21 21 20 20 20 19
30 29 27 29 31 35 35 28 35 33 32 23 20 19 18 20 19 18 19 31 29 27 21 20 21 21 23 23 24 25 25 26 27 26 22 20 22 23 23 24 25 25 25 25 25 25 24 24 23 24 24 22 21 21
30 27 26 26 25 28 22 23 21 23 26 32 28 22 18 19 17 17 19 27 30 32 30 28 26 24 25 26 27 26 25 26 26 27 27 23 20 20 19 20 22 23 24 24 24 24 24 23 25 25 24 22 22 22
27 25 25 22 22 16 19 18 16 15 17 20 26 25 23 20 17 16 15 24 29 28 29 29 29 29 28 28 27 28 27 26 25 26 26 25 24 21 20 20 19 19 20 21 22 23 23 22 23 24 23 23 23 22
21 20 22 22 18 14 16 20 15 16 11 17 21 20 25 22 19 17 10 25 31 30 30 30 30 30 29 29 29 30 29 27 25 25 25 23 22 22 21 20 19 18 17 17 19 20 20 22 22 22 22 22 21 20
16 16 18 20 14 19 23 21 20 17 15 16 16 18 19 21 18 19 10 24 32 29 31 33 34 33 30 29 30 30 29 27 26 24 27 25 22 20 21 20 19 18 17 16 17 17 18 19 20 20 19 20 20 19
15 14 18 25 22 25 23 23 22 18 18 19 14 19 19 20 14 14 16 32 35 33 34 35 36 36 37 35 34 33 32 31 28 25 25 26 25 21 19 19 18 17 17 16 15 15 16 17 18 18 18 18 18 18
13 14 23 28 24 26 25 22 20 23 20 15 10 18 19 15 10 14 27 34 35 36 38 41 43 42 39 39 39 37 35 33 32 29 27 28 27 26 22 18 15 16 17 15 13 13 13 14 15 16 16 16 17 18
20 21 28 24 22 27 26 27 23 19 15 10 15 16 10 13 12 21 30 35 35 36 38 42 44 44 43 42 40 39 38 37 36 34 32 30 28 27 25 23 18 16 21 19 16 14 12 11 13 14 14 14 16 15
25 27 25 24 27 30 33 31 23 16 14 16 13 12 14 25 26 30 32 37 36 37 39 41 41 42 43 43 43 43 41 40 37 35 33 28 27 26 25 25 25 21 24 21 18 16 14 11 10 11 12 13 14 14
26 26 25 25 28 27 33 31 29 25 22 17 15 17 23 32 39 30 34 36 38 40 42 45 46 45 44 44 43 44 45 45 43 39 35 28 22 18 19 20 22 22 22 22 20 17 17 15 12 11 12 13 13 13
30 27 27 27 26 28 28 31 31 28 23 18 16 20 25 36 34 31 34 37 40 44 46 47 50 52 53 53 53 49 44 39 35 32 29 24 19 13 11 14 14 16 17 18 17 16 16 19 16 11 12 12 13 14
26 30 32 27 28 26 27 30 30 27 21 14 12 15 32 44 35 36 36 39 43 46 49 52 53 55 56 56 54 49 41 34 29 20 17 20 22 16 9 7 8 10 14 15 15 15 16 17 17 13 12 13 14 15
28 29 29 29 27 26 27 29 25 26 22 14 14 14 37 50 38 39 40 44 47 49 51 53 56 57 56 51 45 40 37 35 29 21 26 30 25 24 23 17 8 8 14 16 17 18 18 19 18 16 14 15 16 16
29 28 27 27 26 29 31 26 20 25 15 16 21 22 40 50 40 40 41 45 47 49 51 54 55 54 52 46 41 39 38 36 32 24 23 21 17 18 19 11 13 17 19 20 21 22 22 21 20 18 16 17 18 17
Wind_Direction
252 253 249 233 232 241 250 252 252 248 245 247 243 241 244 245 247 249 245 243 243 251 255 253 254 240 260 250 248 256 255 258 258 248 237 238 230 224 233 241 248 230 203 219 231 241 246 253 255 244 279 279 280 277
251 249 248 235 238 240 254 253 239 240 237 240 246 244 235 235 239 238 238 243 243 245 254 250 240 250 250 242 251 252 250 247 245 237 230 229 224 225 220 233 230 232 232 236 239 239 249 266 265 265 269 268 271 270
267 254 250 247 238 238 235 231 238 250 254 251 232 235 238 234 234 242 245 236 234 237 243 247 255 257 252 251 257 252 257 255 256 251 268 275 259 270 264 265 268 255 249 246 246 255 255 254 247 251 255 256 259 253
284 272 259 253 262 265 252 245 244 247 258 266 248 239 234 240 237 235 237 238 238 244 249 255 254 251 250 246 245 250 255 257 255 254 269 273 266 262 262 261 261 268 263 257 256 257 259 261 264 258 257 265 273 268
302 289 275 266 265 263 251 247 252 255 252 250 253 252 247 238 236 235 237 240 243 241 246 249 251 250 252 248 247 252 256 256 257 258 261 262 266 268 267 267 265 269 251 272 276 278 270 278 278 280 275 261 266 271
334 312 308 282 271 261 247 240 245 245 248 247 236 237 240 240 243 249 255 252 255 259 265 269 265 258 262 269 274 268 263 259 259 259 259 263 263 260 259 261 267 267 270 273 272 269 260 274 285 288 292 284 279 276
11 31 10 340 299 282 270 260 254 249 240 240 238 237 240 247 250 252 255 263 261 259 262 267 276 276 272 268 271 274 266 262 263 266 266 261 260 255 257 255 255 257 258 258 257 277 288 287 279 277 277 279 278 274
21 23 19 355 313 285 270 253 245 243 246 246 249 248 246 250 254 256 258 259 263 249 248 243 252 265 276 274 273 273 274 257 269 267 265 268 265 260 254 263 268 245 271 276 279 274 274 275 273 276 281 284 282 278
22 16 16 12 359 339 307 286 275 266 259 253 250 252 255 250 252 257 258 254 254 246 254 246 248 249 258 265 263 264 271 280 279 268 274 274 275 235 237 246 255 261 266 277 275 272 273 273 273 278 282 283 281 281
5 357 355 355 351 337 322 310 285 277 284 267 259 257 257 260 257 254 259 263 257 247 245 262 271 262 267 270 275 281 282 270 252 261 260 249 245 242 255 271 266 260 269 268 273 274 276 280 282 284 282 278 275 274
10 18 17 8 1 2 351 331 301 296 292 273 252 242 251 258 236 253 241 235 226 236 239 250 261 268 280 283 282 275 249 252 241 245 231 224 229 250 258 256 257 261 265 269 273 276 280 281 280 277 274 270 264 260
24 22 15 22 29 25 60 71 42 59 72 125 126 154 192 241 232 237 256 274 278 286 313 300 298 297 301 295 276 248 241 233 236 228 213 218 255 263 264 264 271 276 279 277 275 273 272 272 270 269 267 263 257 254
23 20 20 29 40 38 38 27 54 92 99 118 103 125 179 295 29 22 6 350 336 332 321 314 313 306 293 277 245 245 237 237 235 217 206 210 265 268 270 273 274 272 266 260 257 256 257 260 260 254 251 246 245 246
38 37 43 42 38 44 47 40 59 92 61 62 59 45 49 35 42 36 21 6 352 336 320 316 308 290 275 268 248 244 240 244 238 206 212 297 296 287 282 275 261 249 242 246 255 259 256 252 249 247 245 245 245 243
46 48 50 37 40 44 44 35 19 20 5 74 56 57 70 57 38 21 8 358 353 341 317 308 301 284 260 254 258 275 256 245 192 187 328 320 304 297 284 271 253 242 240 249 256 258 255 250 247 245 243 242 242 243
46 46 45 41 34 24 31 34 2 358 64 68 68 76 58 28 5 354 352 353 351 346 336 327 286 276 252 272 263 267 288 313 316 318 319 315 303 296 288 277 265 254 250 254 261 265 263 256 250 247 245 244 244 246
41 44 44 44 44 46 39 52 83 70 68 74 68 27 3 348 349 354 359 2 1 359 351 327 305 310 304 286 300 332 320 315 311 308 307 306 302 293 284 279 273 268 265 264 263 262 260 256 251 247 244 243 244 247
45 48 49 55 60 62 59 56 59 54 50 45 21 6 355 355 352 356 1 2 5 5 356 350 314 312 326 316 308 308 308 305 305 305 304 296 290 291 283 274 271 268 265 263 261 259 256 251 246 243 241 241 244 247
32 34 36 35 34 43 55 54 56 49 38 28 18 9 4 360 358 354 356 2 8 18 31 17 358 334 333 326 317 317 314 310 307 305 307 303 294 286 283 276 269 266 263 259 258 255 252 249 246 243 242 242 243 246
21 22 22 28 25 32 48 50 47 51 43 34 24 13 1 1 354 349 351 357 4 17 19 12 2 348 339 335 327 325 324 319 316 311 308 304 299 293 288 281 273 266 263 260 256 253 249 245 243 243 241 242 243 245
354 2 15 20 18 25 36 41 45 38 36 35 31 22 7 356 352 348 346 349 1 10 7 1 355 352 344 337 332 330 329 324 320 317 316 313 306 304 295 284 277 272 267 263 259 257 254 248 245 244 243 242 242 243
349 342 346 348 2 9 13 11 12 18 23 21 24 22 15 357 342 344 331 345 358 1 0 355 350 346 344 341 336 331 329 327 321 316 314 314 310 301 296 293 283 275 269 265 261 256 255 252 248 248 245 242 242 243
343 345 352 356 346 349 346 350 345 347 345 1 7 12 9 357 344 328 322 346 352 354 354 351 350 345 342 339 336 332 328 325 321 315 311 311 310 305 300 294 290 284 274 269 264 259 253 251 249 245 244 244 243 242
347 358 2 359 343 346 345 339 338 334 329 337 345 352 352 347 346 345 307 336 349 349 347 348 345 344 342 339 336 333 329 325 323 319 312 311 308 302 298 294 288 284 281 273 265 260 256 251 248 245 242 242 239 238
4 8 357 357 357 356 354 349 341 329 332 333 326 344 340 342 326 334 340 342 344 344 344 344 344 343 341 340 337 335 330 327 325 322 314 310 307 303 296 291 286 281 272 269 269 263 254 248 245 243 239 236 236 235
14 359 1 360 358 0 360 352 341 337 339 338 325 339 341 337 333 341 342 342 342 344 343 342 342 342 341 337 335 333 330 326 324 322 317 310 305 300 294 283 266 263 266 262 259 258 256 249 243 240 236 229 227 227
10 1 1 1 6 9 5 4 358 346 345 339 337 347 347 353 347 339 341 348 345 344 342 341 340 338 337 336 333 331 328 326 322 319 315 310 303 296 291 284 271 252 257 247 244 248 250 250 245 238 233 227 224 222
5 5 7 9 13 12 9 11 2 345 341 344 357 0 3 0 348 352 345 346 345 344 343 340 340 339 337 337 334 330 326 321 319 313 308 304 297 289 281 277 272 260 256 260 249 238 232 236 241 236 227 221 218 211
5 3 4 9 7 7 6 5 5 5 360 355 346 347 351 349 350 347 347 348 346 345 344 346 344 343 342 339 336 332 327 323 320 316 313 306 289 270 265 257 256 258 256 255 252 235 219 209 217 216 214 211 206 199
3 4 6 8 7 5 2 2 2 1 5 4 352 340 343 343 348 355 352 350 348 350 351 349 346 346 345 344 342 341 338 335 333 332 332 335 332 312 275 255 243 238 239 241 239 229 208 204 203 200 200 196 190 185
360 357 2 5 6 6 0 358 356 355 355 7 350 351 357 360 4 0 357 355 355 353 353 353 353 351 351 349 348 350 354 358 1 8 32 33 17 357 336 300 264 233 214 212 208 197 185 182 178 180 184 177 174 173
6 2 2 3 8 5 359 355 351 348 346 345 351 348 353 2 5 3 0 360 359 359 358 357 357 357 356 357 0 5 9 9 8 14 36 23 15 56 41 28 43 145 163 167 167 163 159 157 161 165 162 161 160 161
11 7 6 6 9 5 359 352 349 344 338 340 345 344 353 2 7 2 3 3 2 3 2 2 3 1 4 9 15 21 23 23 27 34 60 52 27 20 26 44 101 120 129 135 134 136 142 147 152 152 147 148 149 151